Year,Month,Day,Hour,Minute,Value (Times are PST for temperature in C)
2011,07,29,00,00,13.80
2011,07,29,00,01,13.80
2011,07,29,00,02,13.80
2011,07,29,00,03,13.80
2011,07,29,00,04,13.80
2011,07,29,00,05,13.80
2011,07,29,00,06,13.70
2011,07,29,00,07,13.70
2011,07,29,00,08,13.70
2011,07,29,00,09,13.70
2011,07,29,00,10,13.70
2011,07,29,00,11,13.70
2011,07,29,00,12,13.60
2011,07,29,00,13,13.60
2011,07,29,00,14,13.60
2011,07,29,00,15,13.50
2011,07,29,00,16,13.50
2011,07,29,00,17,13.40
2011,07,29,00,18,13.40
2011,07,29,00,19,13.40
2011,07,29,00,20,13.40
2011,07,29,00,21,13.30
2011,07,29,00,22,13.30
2011,07,29,00,23,13.30
2011,07,29,00,24,13.30
2011,07,29,00,25,13.30
2011,07,29,00,26,13.30
2011,07,29,00,27,13.30
2011,07,29,00,28,13.30
2011,07,29,00,29,13.30
2011,07,29,00,30,13.30
2011,07,29,00,31,13.30
2011,07,29,00,32,13.30
2011,07,29,00,33,13.30
2011,07,29,00,34,13.30
2011,07,29,00,35,13.30
2011,07,29,00,36,13.30
2011,07,29,00,37,13.30
2011,07,29,00,38,13.30
2011,07,29,00,39,13.30
2011,07,29,00,40,13.30
2011,07,29,00,41,13.30
2011,07,29,00,42,13.30
2011,07,29,00,43,13.30
2011,07,29,00,44,13.30
2011,07,29,00,45,13.30
2011,07,29,00,46,13.30
2011,07,29,00,47,13.30
2011,07,29,00,48,13.30
2011,07,29,00,49,13.30
2011,07,29,00,50,13.30
2011,07,29,00,51,13.30
2011,07,29,00,52,13.30
2011,07,29,00,53,13.30
2011,07,29,00,54,13.40
2011,07,29,00,55,13.40
2011,07,29,00,56,13.40
2011,07,29,00,57,13.40
2011,07,29,00,58,13.40
2011,07,29,00,59,13.40
2011,07,29,01,00,13.40
2011,07,29,01,01,13.40
2011,07,29,01,02,13.50
2011,07,29,01,03,13.50
2011,07,29,01,04,13.50
2011,07,29,01,05,13.50
2011,07,29,01,06,13.50
2011,07,29,01,07,13.50
2011,07,29,01,08,13.50
2011,07,29,01,09,13.60
2011,07,29,01,10,13.60
2011,07,29,01,11,13.60
2011,07,29,01,12,13.60
2011,07,29,01,13,13.60
2011,07,29,01,14,13.60
2011,07,29,01,15,13.60
2011,07,29,01,16,13.60
2011,07,29,01,17,13.70
2011,07,29,01,18,13.70
2011,07,29,01,19,13.70
2011,07,29,01,20,13.70
2011,07,29,01,21,13.70
2011,07,29,01,22,13.70
2011,07,29,01,23,13.70
2011,07,29,01,24,13.70
2011,07,29,01,25,13.70
2011,07,29,01,26,13.80
2011,07,29,01,27,13.80
2011,07,29,01,28,13.80
2011,07,29,01,29,13.80
2011,07,29,01,30,13.80
2011,07,29,01,31,13.90
2011,07,29,01,32,13.90
2011,07,29,01,33,13.90
2011,07,29,01,34,13.90
2011,07,29,01,35,14.00
2011,07,29,01,36,14.00
2011,07,29,01,37,14.00
2011,07,29,01,38,14.00
2011,07,29,01,39,14.00
2011,07,29,01,40,14.10
2011,07,29,01,41,14.10
2011,07,29,01,42,14.10
2011,07,29,01,43,14.10
2011,07,29,01,44,14.10
2011,07,29,01,45,14.10
2011,07,29,01,46,14.10
2011,07,29,01,47,14.10
2011,07,29,01,48,14.10
2011,07,29,01,49,14.10
2011,07,29,01,50,14.10
2011,07,29,01,51,14.10
2011,07,29,01,52,14.20
2011,07,29,01,53,14.20
2011,07,29,01,54,14.20
2011,07,29,01,55,14.20
2011,07,29,01,56,14.20
2011,07,29,01,57,14.20
2011,07,29,01,58,14.20
2011,07,29,01,59,14.20
2011,07,29,02,00,14.20
2011,07,29,02,01,14.20
2011,07,29,02,02,14.20
2011,07,29,02,03,14.20
2011,07,29,02,04,14.20
2011,07,29,02,05,14.20
2011,07,29,02,06,14.20
2011,07,29,02,07,14.20
2011,07,29,02,08,14.30
2011,07,29,02,09,14.30
2011,07,29,02,10,14.30
2011,07,29,02,11,14.30
2011,07,29,02,12,14.30
2011,07,29,02,13,14.30
2011,07,29,02,14,14.30
2011,07,29,02,15,14.30
2011,07,29,02,16,14.30
2011,07,29,02,17,14.30
2011,07,29,02,18,14.30
2011,07,29,02,19,14.30
2011,07,29,02,20,14.30
2011,07,29,02,21,14.30
2011,07,29,02,22,14.30
2011,07,29,02,23,14.30
2011,07,29,02,24,14.30
2011,07,29,02,25,14.30
2011,07,29,02,26,14.30
2011,07,29,02,27,14.30
2011,07,29,02,28,14.30
2011,07,29,02,29,14.30
2011,07,29,02,30,14.30
2011,07,29,02,31,14.30
2011,07,29,02,32,14.30
2011,07,29,02,33,14.30
2011,07,29,02,34,14.30
2011,07,29,02,35,14.30
2011,07,29,02,36,14.30
2011,07,29,02,37,14.30
2011,07,29,02,38,14.30
2011,07,29,02,39,14.30
2011,07,29,02,40,14.30
2011,07,29,02,41,14.30
2011,07,29,02,42,14.30
2011,07,29,02,43,14.30
2011,07,29,02,44,14.30
2011,07,29,02,45,14.30
2011,07,29,02,46,14.30
2011,07,29,02,47,14.30
2011,07,29,02,48,14.30
2011,07,29,02,49,14.40
2011,07,29,02,50,14.40
2011,07,29,02,51,14.40
2011,07,29,02,52,14.40
2011,07,29,02,53,14.40
2011,07,29,02,54,14.50
2011,07,29,02,55,14.50
2011,07,29,02,56,14.50
2011,07,29,02,57,14.60
2011,07,29,02,58,14.60
2011,07,29,02,59,14.60
2011,07,29,03,00,14.60
2011,07,29,03,01,14.60
2011,07,29,03,02,14.70
2011,07,29,03,03,14.70
2011,07,29,03,06,14.60
2011,07,29,03,07,14.60
2011,07,29,03,08,14.60
2011,07,29,03,09,14.60
2011,07,29,03,10,14.60
2011,07,29,03,11,14.50
2011,07,29,03,12,14.50
2011,07,29,03,13,14.50
2011,07,29,03,14,14.40
2011,07,29,03,15,14.40
2011,07,29,03,16,14.40
2011,07,29,03,17,14.30
2011,07,29,03,18,14.30
2011,07,29,03,19,14.30
2011,07,29,03,20,14.30
2011,07,29,03,21,14.20
2011,07,29,03,22,14.20
2011,07,29,03,23,14.20
2011,07,29,03,24,14.20
2011,07,29,03,25,14.10
2011,07,29,03,26,14.10
2011,07,29,03,27,14.10
2011,07,29,03,28,14.10
2011,07,29,03,29,14.10
2011,07,29,03,30,14.10
2011,07,29,03,31,14.00
2011,07,29,03,32,14.00
2011,07,29,03,33,14.00
2011,07,29,03,34,13.90
2011,07,29,03,35,13.90
2011,07,29,03,36,13.90
2011,07,29,03,37,13.90
2011,07,29,03,38,13.90
2011,07,29,03,39,13.90
2011,07,29,03,40,13.90
2011,07,29,03,41,13.90
2011,07,29,03,42,13.90
2011,07,29,03,43,13.90
2011,07,29,03,44,13.90
2011,07,29,03,45,13.90
2011,07,29,03,46,13.90
2011,07,29,03,47,13.90
2011,07,29,03,48,13.90
2011,07,29,03,49,13.80
2011,07,29,03,50,13.80
2011,07,29,03,51,13.80
2011,07,29,03,52,13.80
2011,07,29,03,53,13.80
2011,07,29,03,54,13.80
2011,07,29,03,55,13.80
2011,07,29,03,56,13.80
2011,07,29,03,57,13.80
2011,07,29,03,58,13.80
2011,07,29,03,59,13.80
2011,07,29,04,00,13.80
2011,07,29,04,01,13.80
2011,07,29,04,02,13.80
2011,07,29,04,03,13.80
2011,07,29,04,04,13.80
2011,07,29,04,05,13.90
2011,07,29,04,06,13.90
2011,07,29,04,07,13.90
2011,07,29,04,08,13.90
2011,07,29,04,09,13.90
2011,07,29,04,10,13.90
2011,07,29,04,11,13.90
2011,07,29,04,12,13.90
2011,07,29,04,13,13.90
2011,07,29,04,14,13.90
2011,07,29,04,15,13.90
2011,07,29,04,16,13.90
2011,07,29,04,17,13.90
2011,07,29,04,18,13.90
2011,07,29,04,19,13.90
2011,07,29,04,20,13.90
2011,07,29,04,21,13.90
2011,07,29,04,22,13.90
2011,07,29,04,23,13.90
2011,07,29,04,24,13.90
2011,07,29,04,25,13.90
2011,07,29,04,26,13.90
2011,07,29,04,27,13.90
2011,07,29,04,28,13.90
2011,07,29,04,29,13.90
2011,07,29,04,30,13.90
2011,07,29,04,31,13.90
2011,07,29,04,32,13.90
2011,07,29,04,33,13.90
2011,07,29,04,34,13.90
2011,07,29,04,35,13.90
2011,07,29,04,36,13.90
2011,07,29,04,37,13.90
2011,07,29,04,38,13.90
2011,07,29,04,39,13.90
2011,07,29,04,40,13.90
2011,07,29,04,41,13.90
2011,07,29,04,42,13.90
2011,07,29,04,43,13.80
2011,07,29,04,44,13.80
2011,07,29,04,45,13.80
2011,07,29,04,46,13.80
2011,07,29,04,47,13.80
2011,07,29,04,48,13.80
2011,07,29,04,49,13.80
2011,07,29,04,50,13.80
2011,07,29,04,51,13.80
2011,07,29,04,52,13.80
2011,07,29,04,53,13.80
2011,07,29,04,54,13.80
2011,07,29,04,55,13.80
2011,07,29,04,56,13.80
2011,07,29,04,57,13.80
2011,07,29,04,58,13.80
2011,07,29,04,59,13.80
2011,07,29,05,00,13.80
2011,07,29,05,01,13.80
2011,07,29,05,02,13.80
2011,07,29,05,03,13.80
2011,07,29,05,04,13.80
2011,07,29,05,05,13.80
2011,07,29,05,06,13.80
2011,07,29,05,07,13.80
2011,07,29,05,08,13.80
2011,07,29,05,09,13.80
2011,07,29,05,10,13.80
2011,07,29,05,11,13.80
2011,07,29,05,12,13.80
2011,07,29,05,13,13.80
2011,07,29,05,14,13.80
2011,07,29,05,15,13.80
2011,07,29,05,16,13.80
2011,07,29,05,17,13.80
2011,07,29,05,18,13.80
2011,07,29,05,19,13.80
2011,07,29,05,20,13.80
2011,07,29,05,21,13.80
2011,07,29,05,22,13.80
2011,07,29,05,23,13.80
2011,07,29,05,24,13.80
2011,07,29,05,25,13.80
2011,07,29,05,26,13.80
2011,07,29,05,27,13.80
2011,07,29,05,28,13.80
2011,07,29,05,29,13.90
2011,07,29,05,30,13.90
2011,07,29,05,31,13.90
2011,07,29,05,32,13.90
2011,07,29,05,33,13.90
2011,07,29,05,34,13.90
2011,07,29,05,35,13.90
2011,07,29,05,36,13.90
2011,07,29,05,37,13.90
2011,07,29,05,38,13.90
2011,07,29,05,39,13.90
2011,07,29,05,40,13.90
2011,07,29,05,41,13.90
2011,07,29,05,42,13.90
2011,07,29,05,43,13.90
2011,07,29,05,44,13.90
2011,07,29,05,45,13.90
2011,07,29,05,46,13.90
2011,07,29,05,47,13.90
2011,07,29,05,48,13.90
2011,07,29,05,49,13.90
2011,07,29,05,50,13.90
2011,07,29,05,51,13.90
2011,07,29,05,52,13.90
2011,07,29,05,53,13.90
2011,07,29,05,54,13.90
2011,07,29,05,55,13.90
2011,07,29,05,56,13.90
2011,07,29,05,57,13.90
2011,07,29,05,58,13.90
2011,07,29,05,59,14.00
2011,07,29,06,00,14.00
2011,07,29,06,01,14.00
2011,07,29,06,02,14.00
2011,07,29,06,03,14.00
2011,07,29,06,04,14.00
2011,07,29,06,05,14.00
2011,07,29,06,06,14.00
2011,07,29,06,07,14.00
2011,07,29,06,08,14.00
2011,07,29,06,09,14.00
2011,07,29,06,10,14.00
2011,07,29,06,11,14.00
2011,07,29,06,12,14.00
2011,07,29,06,13,14.00
2011,07,29,06,14,14.00
2011,07,29,06,15,14.00
2011,07,29,06,16,14.00
2011,07,29,06,17,14.00
2011,07,29,06,18,14.00
2011,07,29,06,19,14.00
2011,07,29,06,20,14.00
2011,07,29,06,21,14.00
2011,07,29,06,22,14.10
2011,07,29,06,23,14.10
2011,07,29,06,24,14.10
2011,07,29,06,25,14.10
2011,07,29,06,26,14.10
2011,07,29,06,27,14.10
2011,07,29,06,28,14.10
2011,07,29,06,29,14.10
2011,07,29,06,30,14.10
2011,07,29,06,31,14.10
2011,07,29,06,32,14.10
2011,07,29,06,33,14.10
2011,07,29,06,34,14.10
2011,07,29,06,35,14.20
2011,07,29,06,36,14.20
2011,07,29,06,37,14.20
2011,07,29,06,38,14.20
2011,07,29,06,39,14.20
2011,07,29,06,40,14.20
2011,07,29,06,41,14.20
2011,07,29,06,42,14.20
2011,07,29,06,43,14.20
2011,07,29,06,44,14.20
2011,07,29,06,45,14.30
2011,07,29,06,46,14.30
2011,07,29,06,47,14.30
2011,07,29,06,48,14.30
2011,07,29,06,49,14.30
2011,07,29,06,50,14.30
2011,07,29,06,51,14.30
2011,07,29,06,52,14.30
2011,07,29,06,53,14.40
2011,07,29,06,54,14.40
2011,07,29,06,55,14.40
2011,07,29,06,56,14.40
2011,07,29,06,57,14.40
2011,07,29,06,58,14.40
2011,07,29,06,59,14.40
2011,07,29,07,00,14.50
2011,07,29,07,01,14.50
2011,07,29,07,02,14.50
2011,07,29,07,03,14.60
2011,07,29,07,04,14.60
2011,07,29,07,05,14.60
2011,07,29,07,06,14.60
2011,07,29,07,07,14.60
2011,07,29,07,08,14.70
2011,07,29,07,09,14.70
2011,07,29,07,10,14.70
2011,07,29,07,11,14.70
2011,07,29,07,12,14.70
2011,07,29,07,13,14.70
2011,07,29,07,14,14.70
2011,07,29,07,15,14.70
2011,07,29,07,16,14.70
2011,07,29,07,17,14.70
2011,07,29,07,18,14.80
2011,07,29,07,19,14.80
2011,07,29,07,20,14.80
2011,07,29,07,21,14.80
2011,07,29,07,22,14.80
2011,07,29,07,23,14.80
2011,07,29,07,24,14.80
2011,07,29,07,25,14.80
2011,07,29,07,26,14.80
2011,07,29,07,27,14.80
2011,07,29,07,28,14.80
2011,07,29,07,29,14.80
2011,07,29,07,30,14.80
2011,07,29,07,31,14.80
2011,07,29,07,32,14.80
2011,07,29,07,33,14.90
2011,07,29,07,34,14.90
2011,07,29,07,35,14.90
2011,07,29,07,36,15.00
2011,07,29,07,37,15.00
2011,07,29,07,38,15.00
2011,07,29,07,39,15.00
2011,07,29,07,40,15.00
2011,07,29,07,41,15.00
2011,07,29,07,42,15.00
2011,07,29,07,43,15.00
2011,07,29,07,44,15.00
2011,07,29,07,45,15.00
2011,07,29,07,46,15.10
2011,07,29,07,47,15.20
2011,07,29,07,48,15.30
2011,07,29,07,49,15.30
2011,07,29,07,50,15.40
2011,07,29,07,51,15.40
2011,07,29,07,52,15.50
2011,07,29,07,53,15.50
2011,07,29,07,54,15.60
2011,07,29,07,55,15.60
2011,07,29,07,56,15.70
2011,07,29,07,57,15.70
2011,07,29,07,58,15.80
2011,07,29,07,59,15.80
2011,07,29,08,00,15.90
2011,07,29,08,01,15.90
2011,07,29,08,02,16.00
2011,07,29,08,03,16.00
2011,07,29,08,04,16.10
2011,07,29,08,05,16.20
2011,07,29,08,06,16.20
2011,07,29,08,07,16.30
2011,07,29,08,08,16.40
2011,07,29,08,09,16.50
2011,07,29,08,10,16.70
2011,07,29,08,11,16.80
2011,07,29,08,12,16.90
2011,07,29,08,13,17.00
2011,07,29,08,14,17.10
2011,07,29,08,15,17.10
2011,07,29,08,16,17.20
2011,07,29,08,17,17.30
2011,07,29,08,18,17.30
2011,07,29,08,19,17.40
2011,07,29,08,20,17.40
2011,07,29,08,21,17.40
2011,07,29,08,22,17.50
2011,07,29,08,23,17.50
2011,07,29,08,24,17.50
2011,07,29,08,25,17.60
2011,07,29,08,26,17.60
2011,07,29,08,27,17.60
2011,07,29,08,28,17.60
2011,07,29,08,29,17.60
2011,07,29,08,30,17.60
2011,07,29,08,31,17.60
2011,07,29,08,32,17.60
2011,07,29,08,33,17.60
2011,07,29,08,34,17.70
2011,07,29,08,35,17.70
2011,07,29,08,36,17.70
2011,07,29,08,37,17.70
2011,07,29,08,38,17.70
2011,07,29,08,39,17.70
2011,07,29,08,40,17.70
2011,07,29,08,41,17.70
2011,07,29,08,42,17.80
2011,07,29,08,43,17.80
2011,07,29,08,44,17.80
2011,07,29,08,45,17.80
2011,07,29,08,46,17.80
2011,07,29,08,47,17.80
2011,07,29,08,48,17.80
2011,07,29,08,49,17.80
2011,07,29,08,50,17.80
2011,07,29,08,51,17.80
2011,07,29,08,52,17.80
2011,07,29,08,53,17.90
2011,07,29,08,54,17.90
2011,07,29,08,55,17.90
2011,07,29,08,56,17.90
2011,07,29,08,57,17.90
2011,07,29,08,58,17.90
2011,07,29,08,59,17.90
2011,07,29,09,00,17.90
2011,07,29,09,01,17.90
2011,07,29,09,02,17.90
2011,07,29,09,03,17.90
2011,07,29,09,04,18.00
2011,07,29,09,05,18.00
2011,07,29,09,06,18.00
2011,07,29,09,07,18.00
2011,07,29,09,08,18.10
2011,07,29,09,09,18.10
2011,07,29,09,10,18.10
2011,07,29,09,11,18.10
2011,07,29,09,12,18.10
2011,07,29,09,13,18.10
2011,07,29,09,14,18.10
2011,07,29,09,15,18.20
2011,07,29,09,16,18.20
2011,07,29,09,17,18.20
2011,07,29,09,18,18.20
2011,07,29,09,19,18.20
2011,07,29,09,20,18.30
2011,07,29,09,21,18.30
2011,07,29,09,22,18.30
2011,07,29,09,23,18.30
2011,07,29,09,24,18.30
2011,07,29,09,25,18.30
2011,07,29,09,26,18.30
2011,07,29,09,27,18.40
2011,07,29,09,28,18.40
2011,07,29,09,29,18.40
2011,07,29,09,30,18.40
2011,07,29,09,31,18.40
2011,07,29,09,32,18.50
2011,07,29,09,33,18.50
2011,07,29,09,34,18.50
2011,07,29,09,35,18.50
2011,07,29,09,36,18.50
2011,07,29,09,37,18.60
2011,07,29,09,38,18.60
2011,07,29,09,39,18.60
2011,07,29,09,40,18.60
2011,07,29,09,41,18.70
2011,07,29,09,42,18.70
2011,07,29,09,43,18.70
2011,07,29,09,44,18.70
2011,07,29,09,45,18.70
2011,07,29,09,46,18.70
2011,07,29,09,47,18.80
2011,07,29,09,48,18.80
2011,07,29,09,49,18.80
2011,07,29,09,50,18.80
2011,07,29,09,51,18.80
2011,07,29,09,52,18.80
2011,07,29,09,53,18.80
2011,07,29,09,54,18.80
2011,07,29,09,55,18.80
2011,07,29,09,56,18.80
2011,07,29,09,57,18.80
2011,07,29,09,58,18.80
2011,07,29,09,59,18.80
2011,07,29,10,00,18.80
2011,07,29,10,01,18.80
2011,07,29,10,02,18.80
2011,07,29,10,03,18.80
2011,07,29,10,04,18.80
2011,07,29,10,05,18.90
2011,07,29,10,06,18.90
2011,07,29,10,07,19.00
2011,07,29,10,08,19.00
2011,07,29,10,09,19.00
2011,07,29,10,10,19.00
2011,07,29,10,11,19.00
2011,07,29,10,12,19.10
2011,07,29,10,13,19.10
2011,07,29,10,14,19.10
2011,07,29,10,15,19.20
2011,07,29,10,16,19.20
2011,07,29,10,17,19.20
2011,07,29,10,18,19.20
2011,07,29,10,19,19.20
2011,07,29,10,20,19.30
2011,07,29,10,21,19.30
2011,07,29,10,22,19.30
2011,07,29,10,23,19.30
2011,07,29,10,24,19.30
2011,07,29,10,25,19.40
2011,07,29,10,26,19.40
2011,07,29,10,27,19.40
2011,07,29,10,28,19.40
2011,07,29,10,29,19.40
2011,07,29,10,30,19.40
2011,07,29,10,31,19.50
2011,07,29,10,32,19.50
2011,07,29,10,33,19.60
2011,07,29,10,34,19.60
2011,07,29,10,35,19.60
2011,07,29,10,36,19.60
2011,07,29,10,37,19.60
2011,07,29,10,38,19.60
2011,07,29,10,39,19.70
2011,07,29,10,40,19.70
2011,07,29,10,41,19.70
2011,07,29,10,42,19.80
2011,07,29,10,43,19.80
2011,07,29,10,44,19.80
2011,07,29,10,45,19.70
2011,07,29,10,46,19.70
2011,07,29,10,47,19.70
2011,07,29,10,48,19.60
2011,07,29,10,49,19.60
2011,07,29,10,50,19.60
2011,07,29,10,51,19.60
2011,07,29,10,52,19.60
2011,07,29,10,53,19.60
2011,07,29,10,54,19.60
2011,07,29,10,55,19.60
2011,07,29,10,56,19.60
2011,07,29,10,57,19.70
2011,07,29,10,58,19.70
2011,07,29,10,59,19.70
2011,07,29,11,00,19.70
2011,07,29,11,01,19.80
2011,07,29,11,02,19.80
2011,07,29,11,03,19.80
2011,07,29,11,04,19.80
2011,07,29,11,05,19.70
2011,07,29,11,06,19.70
2011,07,29,11,07,19.70
2011,07,29,11,08,19.70
2011,07,29,11,09,19.80
2011,07,29,11,10,19.90
2011,07,29,11,11,20.00
2011,07,29,11,12,20.10
2011,07,29,11,13,20.20
2011,07,29,11,14,20.30
2011,07,29,11,15,20.40
2011,07,29,11,16,20.50
2011,07,29,11,17,20.60
2011,07,29,11,18,20.70
2011,07,29,11,19,20.80
2011,07,29,11,20,20.90
2011,07,29,11,21,21.00
2011,07,29,11,22,21.00
2011,07,29,11,23,20.90
2011,07,29,11,24,20.90
2011,07,29,11,25,20.90
2011,07,29,11,26,20.90
2011,07,29,11,27,20.90
2011,07,29,11,28,20.90
2011,07,29,11,29,20.90
2011,07,29,11,30,20.90
2011,07,29,11,31,20.80
2011,07,29,11,32,20.70
2011,07,29,11,33,20.60
2011,07,29,11,34,20.50
2011,07,29,11,35,20.50
2011,07,29,11,36,20.40
2011,07,29,11,37,20.40
2011,07,29,11,38,20.40
2011,07,29,11,39,20.40
2011,07,29,11,40,20.40
2011,07,29,11,41,20.30
2011,07,29,11,42,20.30
2011,07,29,11,43,20.20
2011,07,29,11,44,20.20
2011,07,29,11,45,20.30
2011,07,29,11,46,20.40
2011,07,29,11,47,20.50
2011,07,29,11,48,20.70
2011,07,29,11,49,20.70
2011,07,29,11,50,20.80
2011,07,29,11,51,20.80
2011,07,29,11,52,20.80
2011,07,29,11,53,20.80
2011,07,29,11,54,20.80
2011,07,29,11,55,20.70
2011,07,29,11,56,20.60
2011,07,29,11,57,20.60
2011,07,29,11,58,20.70
2011,07,29,11,59,20.70
2011,07,29,12,00,20.70
2011,07,29,12,01,20.80
2011,07,29,12,02,20.80
2011,07,29,12,03,20.80
2011,07,29,12,04,20.80
2011,07,29,12,05,20.90
2011,07,29,12,06,20.90
2011,07,29,12,07,20.90
2011,07,29,12,08,21.00
2011,07,29,12,09,21.00
2011,07,29,12,10,20.90
2011,07,29,12,11,20.80
2011,07,29,12,12,20.70
2011,07,29,12,13,20.60
2011,07,29,12,14,20.50
2011,07,29,12,15,20.40
2011,07,29,12,16,20.40
2011,07,29,12,17,20.40
2011,07,29,12,18,20.40
2011,07,29,12,19,20.40
2011,07,29,12,20,20.50
2011,07,29,12,21,20.60
2011,07,29,12,22,20.70
2011,07,29,12,23,20.90
2011,07,29,12,24,21.10
2011,07,29,12,25,21.20
2011,07,29,12,26,21.20
2011,07,29,12,27,21.20
2011,07,29,12,28,21.20
2011,07,29,12,29,21.20
2011,07,29,12,30,21.10
2011,07,29,12,31,21.10
2011,07,29,12,32,21.00
2011,07,29,12,33,21.00
2011,07,29,12,34,20.90
2011,07,29,12,35,20.90
2011,07,29,12,36,20.80
2011,07,29,12,37,20.70
2011,07,29,12,38,20.60
2011,07,29,12,39,20.60
2011,07,29,12,40,20.50
2011,07,29,12,41,20.40
2011,07,29,12,42,20.30
2011,07,29,12,43,20.30
2011,07,29,12,44,20.30
2011,07,29,12,45,20.30
2011,07,29,12,46,20.30
2011,07,29,12,47,20.30
2011,07,29,12,48,20.40
2011,07,29,12,49,20.40
2011,07,29,12,50,20.50
2011,07,29,12,51,20.50
2011,07,29,12,52,20.70
2011,07,29,12,53,20.80
2011,07,29,12,54,20.90
2011,07,29,12,55,21.00
2011,07,29,12,56,21.10
2011,07,29,12,57,21.10
2011,07,29,12,58,21.00
2011,07,29,12,59,21.00
2011,07,29,13,00,20.90
2011,07,29,13,01,20.90
2011,07,29,13,02,20.90
2011,07,29,13,03,20.90
2011,07,29,13,04,20.90
2011,07,29,13,05,20.90
2011,07,29,13,06,20.90
2011,07,29,13,07,20.80
2011,07,29,13,08,20.80
2011,07,29,13,09,20.90
2011,07,29,13,10,21.00
2011,07,29,13,11,21.00
2011,07,29,13,12,21.10
2011,07,29,13,13,21.00
2011,07,29,13,14,20.90
2011,07,29,13,15,20.80
2011,07,29,13,16,20.80
2011,07,29,13,17,20.80
2011,07,29,13,18,20.90
2011,07,29,13,19,21.00
2011,07,29,13,20,21.10
2011,07,29,13,21,21.20
2011,07,29,13,22,21.30
2011,07,29,13,23,21.30
2011,07,29,13,24,21.20
2011,07,29,13,25,21.20
2011,07,29,13,26,21.10
2011,07,29,13,27,21.10
2011,07,29,13,28,21.20
2011,07,29,13,29,21.30
2011,07,29,13,30,21.30
2011,07,29,13,31,21.40
2011,07,29,13,32,21.40
2011,07,29,13,33,21.50
2011,07,29,13,34,21.50
2011,07,29,13,35,21.50
2011,07,29,13,36,21.60
2011,07,29,13,37,21.60
2011,07,29,13,38,21.70
2011,07,29,13,39,21.70
2011,07,29,13,40,21.60
2011,07,29,13,41,21.50
2011,07,29,13,42,21.40
2011,07,29,13,43,21.40
2011,07,29,13,44,21.30
2011,07,29,13,45,21.30
2011,07,29,13,46,21.30
2011,07,29,13,47,21.30
2011,07,29,13,48,21.30
2011,07,29,13,49,21.20
2011,07,29,13,50,21.10
2011,07,29,13,51,21.00
2011,07,29,13,52,20.90
2011,07,29,13,53,20.90
2011,07,29,13,54,20.90
2011,07,29,13,55,20.80
2011,07,29,13,56,20.70
2011,07,29,13,57,20.60
2011,07,29,13,58,20.60
2011,07,29,13,59,20.70
2011,07,29,14,00,20.80
2011,07,29,14,01,20.80
2011,07,29,14,02,21.00
2011,07,29,14,03,21.10
2011,07,29,14,04,21.20
2011,07,29,14,05,21.30
2011,07,29,14,06,21.40
2011,07,29,14,07,21.40
2011,07,29,14,08,21.40
2011,07,29,14,09,21.20
2011,07,29,14,10,21.20
2011,07,29,14,11,21.30
2011,07,29,14,12,21.30
2011,07,29,14,13,21.50
2011,07,29,14,14,21.60
2011,07,29,14,15,21.80
2011,07,29,14,16,21.80
2011,07,29,14,17,21.90
2011,07,29,14,18,22.10
2011,07,29,14,19,22.40
2011,07,29,14,20,22.60
2011,07,29,14,21,22.70
2011,07,29,14,22,22.70
2011,07,29,14,23,22.50
2011,07,29,14,24,22.40
2011,07,29,14,25,22.30
2011,07,29,14,26,22.20
2011,07,29,14,27,22.20
2011,07,29,14,28,22.10
2011,07,29,14,29,22.10
2011,07,29,14,30,22.10
2011,07,29,14,31,22.10
2011,07,29,14,32,22.20
2011,07,29,14,33,22.30
2011,07,29,14,34,22.40
2011,07,29,14,35,22.40
2011,07,29,14,36,22.30
2011,07,29,14,37,22.30
2011,07,29,14,38,22.40
2011,07,29,14,39,22.60
2011,07,29,14,40,22.80
2011,07,29,14,41,22.90
2011,07,29,14,42,22.90
2011,07,29,14,43,22.90
2011,07,29,14,44,22.90
2011,07,29,14,45,22.90
2011,07,29,14,46,23.00
2011,07,29,14,47,23.10
2011,07,29,14,48,23.10
2011,07,29,14,49,23.10
2011,07,29,14,50,23.10
2011,07,29,14,51,23.10
2011,07,29,14,52,23.10
2011,07,29,14,53,23.10
2011,07,29,14,54,23.10
2011,07,29,14,55,23.10
2011,07,29,14,56,23.20
2011,07,29,14,57,23.40
2011,07,29,14,58,23.50
2011,07,29,14,59,23.60
2011,07,29,15,00,23.70
2011,07,29,15,01,23.80
2011,07,29,15,02,23.80
2011,07,29,15,03,23.70
2011,07,29,15,04,23.70
2011,07,29,15,05,23.60
2011,07,29,15,06,23.40
2011,07,29,15,07,23.30
2011,07,29,15,08,23.20
2011,07,29,15,09,23.20
2011,07,29,15,10,23.30
2011,07,29,15,11,23.40
2011,07,29,15,12,23.60
2011,07,29,15,13,23.80
2011,07,29,15,14,24.00
2011,07,29,15,15,24.10
2011,07,29,15,16,24.20
2011,07,29,15,17,24.30
2011,07,29,15,18,24.30
2011,07,29,15,19,24.40
2011,07,29,15,20,24.40
2011,07,29,15,21,24.50
2011,07,29,15,22,24.40
2011,07,29,15,23,24.40
2011,07,29,15,24,24.20
2011,07,29,15,25,24.10
2011,07,29,15,26,23.90
2011,07,29,15,27,23.90
2011,07,29,15,28,23.90
2011,07,29,15,29,23.90
2011,07,29,15,30,23.90
2011,07,29,15,31,23.90
2011,07,29,15,32,23.90
2011,07,29,15,33,23.80
2011,07,29,15,34,23.70
2011,07,29,15,35,23.60
2011,07,29,15,36,23.50
2011,07,29,15,37,23.30
2011,07,29,15,38,23.10
2011,07,29,15,39,23.00
2011,07,29,15,40,22.80
2011,07,29,15,41,22.70
2011,07,29,15,42,22.70
2011,07,29,15,43,22.80
2011,07,29,15,44,22.90
2011,07,29,15,45,23.00
2011,07,29,15,46,23.00
2011,07,29,15,47,23.00
2011,07,29,15,48,23.00
2011,07,29,15,49,23.10
2011,07,29,15,50,23.00
2011,07,29,15,51,22.90
2011,07,29,15,52,22.90
2011,07,29,15,53,23.00
2011,07,29,15,54,23.00
2011,07,29,15,55,23.10
2011,07,29,15,56,23.20
2011,07,29,15,57,23.20
2011,07,29,15,58,23.20
2011,07,29,15,59,23.20
2011,07,29,16,00,23.20
2011,07,29,16,01,23.20
2011,07,29,16,02,23.20
2011,07,29,16,03,23.10
2011,07,29,16,04,22.90
2011,07,29,16,05,22.80
2011,07,29,16,06,22.70
2011,07,29,16,07,22.50
2011,07,29,16,08,22.40
2011,07,29,16,09,22.30
2011,07,29,16,10,22.40
2011,07,29,16,11,22.60
2011,07,29,16,12,22.70
2011,07,29,16,13,22.70
2011,07,29,16,14,22.70
2011,07,29,16,15,22.80
2011,07,29,16,16,22.90
2011,07,29,16,17,23.00
2011,07,29,16,18,23.10
2011,07,29,16,19,23.20
2011,07,29,16,20,23.20
2011,07,29,16,21,23.20
2011,07,29,16,22,23.10
2011,07,29,16,23,23.00
2011,07,29,16,24,22.80
2011,07,29,16,25,22.60
2011,07,29,16,26,22.60
2011,07,29,16,27,22.60
2011,07,29,16,28,22.60
2011,07,29,16,29,22.60
2011,07,29,16,30,22.60
2011,07,29,16,31,22.60
2011,07,29,16,32,22.50
2011,07,29,16,33,22.30
2011,07,29,16,34,22.20
2011,07,29,16,35,22.00
2011,07,29,16,36,21.90
2011,07,29,16,37,21.80
2011,07,29,16,38,21.80
2011,07,29,16,39,21.70
2011,07,29,16,40,21.70
2011,07,29,16,41,21.60
2011,07,29,16,42,21.60
2011,07,29,16,43,21.60
2011,07,29,16,44,21.70
2011,07,29,16,45,21.80
2011,07,29,16,46,22.00
2011,07,29,16,47,22.10
2011,07,29,16,48,22.20
2011,07,29,16,49,22.40
2011,07,29,16,50,22.50
2011,07,29,16,51,22.70
2011,07,29,16,52,22.80
2011,07,29,16,53,22.90
2011,07,29,16,54,23.00
2011,07,29,16,55,23.10
2011,07,29,16,56,23.10
2011,07,29,16,57,23.20
2011,07,29,16,58,23.30
2011,07,29,16,59,23.40
2011,07,29,17,00,23.50
2011,07,29,17,01,23.60
2011,07,29,17,02,23.70
2011,07,29,17,03,23.70
2011,07,29,17,04,23.70
2011,07,29,17,05,23.70
2011,07,29,17,06,23.70
2011,07,29,17,07,23.70
2011,07,29,17,08,23.80
2011,07,29,17,09,23.80
2011,07,29,17,10,23.90
2011,07,29,17,11,23.90
2011,07,29,17,12,23.80
2011,07,29,17,13,23.60
2011,07,29,17,14,23.50
2011,07,29,17,15,23.30
2011,07,29,17,16,23.20
2011,07,29,17,17,23.20
2011,07,29,17,18,23.30
2011,07,29,17,19,23.30
2011,07,29,17,20,23.40
2011,07,29,17,21,23.50